Fort Collins, CO

9:00 PM MST on December 07, 2019 (GMT -0700)
Fort Collins-Loveland Municipal

Weather History for KFNL - October, 2019

Change the Weather History Date:

Tuesday, October 29, 2019

  Actual Average Record
Temperature  
Mean Temperature 15 °F -  
Max Temperature 22 °F - 80 °F (2003)
Min Temperature 8 °F - 8 °F (2019)
Degree Days  
Heating Degree Days 50    
Month to date heating degree days 568  
Cooling Degree Days 0    
Month to date cooling degree days 0  
Moisture  
Dew Point 10 °F    
Average Humidity 88    
Maximum Humidity 92    
Minimum Humidity 83    
Precipitation  
Precipitation 0.00 in - 0.08 in (2002)
Snow  
Snow 0.00 in - - ()
Snow Depth 0.00 in    
Sea Level Pressure  
Sea Level Pressure 30.22 in    
Wind  
Wind Speed 12 mph (NNE)    
Max Wind Speed 20 mph    
Max Gust Speed -    
Visibility 2 miles    
Events Fog , Snow    
T = Trace of Precipitation, MM = Missing Value Source: NWS Daily Summary

Daily Weather History Graph

Daily Weather History Graph

Search for Another Location

Airport or City:

Astronomy

Oct. 29, 2019 Rise Set
Actual Time 7:26 AM MDT 6:00 PM MDT
Civil Twilight 6:58 AM MDT 6:28 PM MDT
Nautical Twilight 6:26 AM MDT 7:00 PM MDT
Astronomical Twilight 5:54 AM MDT 7:32 PM MDT
Moon 9:03 AM MDT (10/29) 7:26 PM MDT (10/29)
Length of Visible Light 11h 30m
Length of Day
10h 34m
Waxing Crescent, 3% of the Moon is Illuminated
Oct 29
Waxing Crescent
Nov 4
First Quarter
Nov 12
Full
Nov 19
Last Quarter
Nov 26
New

Hourly Weather History & Observations

Time (MDT) Temp. Windchill Dew Point Humidity Pressure Visibility Wind Dir Wind Speed Gust Speed Precip Events Conditions
12:56 AM 21.0 °F 13.4 °F 17.1 °F 85% 30.08 in 10.0 mi SE 5.8 mph - N/A   Overcast
1:56 AM 21.0 °F 14.6 °F 17.1 °F 85% 30.08 in 10.0 mi SSE 4.6 mph - N/A   Overcast
2:56 AM 21.0 °F 16.2 °F 17.1 °F 85% 30.10 in 10.0 mi East 3.5 mph - N/A   Overcast
3:56 AM 21.9 °F 9.8 °F 19.0 °F 89% 30.10 in 5.0 mi NNE 12.7 mph - 0.00 in Snow Light Snow
4:19 AM 21.2 °F 6.8 °F 19.4 °F 93% 30.01 in 1.8 mi NNE 17.3 mph - 0.00 in Snow Light Snow
4:27 AM 21.2 °F 8.3 °F 19.4 °F 93% 30.01 in 1.5 mi NNE 13.8 mph - 0.00 in Snow Light Snow
4:54 AM 19.4 °F 6.0 °F 17.6 °F 93% 30.03 in 1.5 mi NNE 13.8 mph - 0.00 in Snow Light Snow
4:56 AM 19.9 °F 6.2 °F 17.1 °F 89% 30.14 in 1.5 mi NNE 15.0 mph - 0.00 in Snow Light Snow
5:06 AM 17.6 °F 2.2 °F 15.8 °F 93% 30.04 in 1.0 mi North 17.3 mph - 0.00 in Snow Light Snow
5:26 AM 17.6 °F 2.2 °F 14.0 °F 86% 30.05 in 0.8 mi North 17.3 mph - 0.00 in Snow Light Snow
5:35 AM 15.8 °F -0.2 °F 14.0 °F 93% 30.06 in 0.8 mi North 17.3 mph - 0.00 in Snow Light Snow
5:56 AM 16.0 °F 0.6 °F 12.9 °F 88% 30.20 in 0.8 mi North 16.1 mph - 0.00 in Snow Light Snow
6:33 AM 14.0 °F -3.0 °F 12.2 °F 93% 30.08 in 0.8 mi North 18.4 mph - 0.00 in Snow Light Snow
6:56 AM 12.9 °F -3.9 °F 10.9 °F 92% 30.24 in 1.0 mi North 17.3 mph - 0.00 in Snow Light Snow
7:29 AM 12.2 °F -4.8 °F 8.6 °F 85% 30.11 in 0.5 mi North 17.3 mph - 0.00 in Fog , Snow Snow
7:47 AM 10.4 °F -7.7 °F 8.6 °F 92% 30.13 in 0.8 mi North 18.4 mph - 0.00 in Snow Light Snow
7:56 AM 10.9 °F -5.9 °F 9.0 °F 92% 30.29 in 0.8 mi North 16.1 mph - 0.00 in Snow Light Snow
8:04 AM 10.4 °F -6.6 °F 8.6 °F 92% 30.13 in 0.5 mi North 16.1 mph - 0.00 in Fog , Snow Light Snow
8:13 AM 10.4 °F -7.2 °F 8.6 °F 92% 30.14 in 0.8 mi North 17.3 mph - 0.00 in Snow Light Snow
8:38 AM 10.4 °F -6.0 °F 8.6 °F 92% 30.16 in 1.0 mi North 15.0 mph - 0.00 in Snow Light Snow
8:40 AM 10.4 °F -5.4 °F 8.6 °F 92% 30.16 in 1.0 mi North 13.8 mph - 0.00 in Snow Light Snow
8:56 AM 10.9 °F -6.5 °F 8.1 °F 88% 30.33 in 0.8 mi North 17.3 mph - 0.00 in Snow Light Snow
9:07 AM 10.4 °F -6.6 °F 8.6 °F 92% 30.18 in 1.0 mi North 16.1 mph - 0.00 in Snow Light Snow
9:31 AM 10.4 °F -6.0 °F 8.6 °F 92% 30.19 in 1.2 mi North 15.0 mph - 0.00 in Snow Light Snow
9:40 AM 10.4 °F -6.0 °F 8.6 °F 92% 30.18 in 1.0 mi North 15.0 mph - 0.00 in Snow Light Snow
9:49 AM 10.4 °F -7.2 °F 8.6 °F 92% 30.19 in 1.0 mi North 17.3 mph - 0.00 in Snow Light Snow
9:56 AM 10.9 °F -5.4 °F 8.1 °F 88% 30.35 in 1.0 mi North 15.0 mph - 0.00 in Snow Light Snow
10:16 AM 12.2 °F -4.3 °F 8.6 °F 85% 30.19 in 0.8 mi North 16.1 mph - 0.00 in Snow Light Snow
10:31 AM 12.2 °F -3.7 °F 10.4 °F 92% 30.19 in 1.0 mi North 15.0 mph - 0.00 in Snow Light Snow
10:41 AM 12.2 °F -5.3 °F 8.6 °F 85% 30.19 in 1.2 mi North 18.4 mph - 0.00 in Snow Light Snow
10:56 AM 12.0 °F -5.1 °F 9.0 °F 88% 30.36 in 1.8 mi North 17.3 mph - 0.00 in Snow Light Snow
11:30 AM 12.2 °F -3.1 °F 10.4 °F 92% 30.20 in 0.8 mi North 13.8 mph - 0.00 in Snow Light Snow
11:50 AM 12.2 °F -4.3 °F 10.4 °F 92% 30.20 in 1.0 mi North 16.1 mph - 0.00 in Snow Light Snow
11:53 AM 12.2 °F -3.7 °F 10.4 °F 92% 30.20 in 1.2 mi North 15.0 mph - 0.00 in Snow Light Snow
11:56 AM 12.0 °F -3.4 °F 9.0 °F 88% 30.36 in 1.2 mi North 13.8 mph - 0.00 in Snow Light Snow
12:18 PM 12.2 °F -3.7 °F 8.6 °F 85% 30.19 in 1.0 mi North 15.0 mph - 0.00 in Snow Light Snow
12:28 PM 12.2 °F -3.1 °F 10.4 °F 92% 30.19 in 0.5 mi NNE 13.8 mph - 0.00 in Fog , Snow Light Snow
12:36 PM 14.0 °F -1.4 °F 10.4 °F 86% 30.19 in 0.8 mi NNE 15.0 mph - 0.00 in Snow Light Snow
12:56 PM 12.9 °F -2.2 °F 10.0 °F 88% 30.35 in 1.0 mi NNE 13.8 mph - 0.00 in Snow Light Snow
1:06 PM 12.2 °F -2.5 °F 10.4 °F 92% 30.19 in 1.2 mi NNE 12.7 mph - 0.00 in Snow Light Snow
1:42 PM 12.2 °F -2.5 °F 10.4 °F 92% 30.17 in 0.8 mi NNE 12.7 mph - 0.00 in Snow Light Snow
1:54 PM 12.2 °F -1.0 °F 10.4 °F 92% 30.18 in 0.8 mi NNE 10.4 mph - 0.00 in Snow Light Snow
1:56 PM 14.0 °F 0.5 °F 10.9 °F 88% 30.33 in 0.8 mi NNE 11.5 mph - 0.00 in Snow Light Snow
2:05 PM 14.0 °F 2.0 °F 10.4 °F 86% 30.18 in 0.5 mi NNE 9.2 mph - 0.00 in Fog , Snow Light Snow
2:15 PM 14.0 °F 0.5 °F 10.4 °F 86% 30.18 in 0.5 mi NNE 11.5 mph - 0.00 in Fog , Snow Snow
2:50 PM 14.0 °F 2.9 °F 10.4 °F 86% 30.18 in 1.0 mi NE 8.1 mph - 0.00 in Snow Light Snow
2:56 PM 14.0 °F 0.5 °F 10.9 °F 88% 30.33 in 1.2 mi NE 11.5 mph - 0.00 in Snow Light Snow
3:01 PM 12.2 °F -1.8 °F 10.4 °F 92% 30.18 in 2.0 mi NE 11.5 mph - 0.00 in Snow Light Snow
3:26 PM 12.2 °F -1.0 °F 10.4 °F 92% 30.19 in 1.2 mi NE 10.4 mph - 0.00 in Snow Light Snow
3:34 PM 12.2 °F 0.7 °F 10.4 °F 92% 30.19 in 0.8 mi NE 8.1 mph - 0.00 in Snow Light Snow
3:41 PM 12.2 °F -1.0 °F 10.4 °F 92% 30.19 in 0.8 mi NE 10.4 mph - 0.00 in Snow Light Snow
3:48 PM 12.2 °F -0.2 °F 10.4 °F 92% 30.20 in 1.0 mi NE 9.2 mph - 0.00 in Snow Light Snow
3:56 PM 12.9 °F 1.6 °F 10.0 °F 88% 30.35 in 1.0 mi ENE 8.1 mph - 0.00 in Snow Light Snow
4:05 PM 12.2 °F -1.8 °F 10.4 °F 92% 30.20 in 0.8 mi NE 11.5 mph - 0.00 in Snow Light Snow
4:15 PM 12.2 °F -1.8 °F 8.6 °F 85% 30.20 in 1.2 mi NNE 11.5 mph - 0.00 in Snow Light Snow
4:27 PM 12.2 °F -0.2 °F 8.6 °F 85% 30.20 in 1.0 mi NE 9.2 mph - 0.00 in Snow Light Snow
4:34 PM 12.2 °F -1.8 °F 8.6 °F 85% 30.19 in 1.5 mi NE 11.5 mph - 0.00 in Snow Light Snow
4:47 PM 10.4 °F -3.3 °F 8.6 °F 92% 30.20 in 2.0 mi NE 10.4 mph - 0.00 in Snow Light Snow
4:56 PM 12.0 °F -0.4 °F 9.0 °F 88% 30.37 in 2.5 mi ENE 9.2 mph - 0.00 in Snow Light Snow
5:01 PM 12.2 °F 0.7 °F 8.6 °F 85% 30.20 in 3.0 mi NE 8.1 mph - 0.00 in Snow Light Snow
5:39 PM 10.4 °F -1.5 °F 8.6 °F 92% 30.22 in 1.8 mi NE 8.1 mph - 0.00 in Snow Light Snow
5:48 PM 10.4 °F -0.4 °F 8.6 °F 92% 30.22 in 1.2 mi ENE 6.9 mph - 0.00 in Snow Light Snow
5:56 PM 10.9 °F -2.6 °F 8.1 °F 88% 30.40 in 1.2 mi NE 10.4 mph - 0.00 in Snow Light Snow
6:43 PM 10.4 °F -0.4 °F 6.8 °F 85% 30.24 in 2.5 mi NE 6.9 mph - 0.00 in Snow Light Snow
6:56 PM 10.0 °F -0.9 °F 7.0 °F 87% 30.45 in 2.0 mi NE 6.9 mph - 0.00 in Snow Light Snow
7:02 PM 10.4 °F 0.8 °F 6.8 °F 85% 30.25 in 1.5 mi NNE 5.8 mph - 0.00 in Snow Light Snow
7:37 PM 10.4 °F -1.5 °F 6.8 °F 85% 30.27 in 1.0 mi NNE 8.1 mph - 0.00 in Snow Light Snow
7:40 PM 10.4 °F -1.5 °F 6.8 °F 85% 30.27 in 1.2 mi NNE 8.1 mph - 0.00 in Snow Light Snow
7:54 PM 8.6 °F -3.7 °F 6.8 °F 92% 30.26 in 2.0 mi NNE 8.1 mph - 0.00 in Snow Light Snow
7:56 PM 9.0 °F -4.2 °F 7.0 °F 92% 30.47 in 2.0 mi NE 9.2 mph - 0.00 in Snow Light Snow
8:20 PM 8.6 °F -4.7 °F 6.8 °F 92% 30.27 in 3.0 mi NNE 9.2 mph - 0.00 in Snow Light Snow
8:47 PM 8.6 °F -2.6 °F 6.8 °F 92% 30.28 in 2.5 mi NNE 6.9 mph - 0.00 in Snow Light Snow
8:56 PM 9.0 °F -0.9 °F 6.1 °F 88% 30.50 in 3.0 mi NNE 5.8 mph - 0.00 in Snow Light Snow
10:23 PM 8.6 °F -2.6 °F 5.0 °F 85% 30.30 in 8.0 mi North 6.9 mph - 0.00 in Snow Light Snow
10:56 PM 8.1 °F -2.0 °F 5.0 °F 87% 30.51 in 8.0 mi NNE 5.8 mph - 0.00 in Snow Light Snow
11:56 PM 8.1 °F -5.3 °F 5.0 °F 87% 30.51 in 4.0 mi North 9.2 mph - 0.00 in Snow Light Snow